sat.trackr.live / text

‹ back to catalog

UNKNOWN

NORAD 82642

UNKNOWN UNKNOWN UNKNOWN

§ Identity

Operator
Country
Launch date
Launch site
Launch vehicle
Mass (kg)
RCS (m²)

External: N2YO · Heavens-Above

§ Orbital elements

Epoch: 2026-05-23T17:12:00.770112Z

Period
102.28 min
Inclination
98.9729°
Eccentricity
0.0134439
Mean motion
14.07864501 rev/d
Perigee alt
769.3 km
Apogee alt
964.1 km
Semi-major
7,244.8 km
B*
3.0417e-4
RAAN
58.2319°
Arg perigee
142.8300°
Mean anomaly
218.2269°
Rev number
63,892

§ Raw data

UNKNOWN1 82642U          26143.71667558  .00000517  00000+0  30417-3 0  99932 82642  98.9729  58.2319 0134439 142.8300 218.2269 14.07864501638922

JSON: /api/v1/satellites/82642 · /tle

For live sub-satellite position, see the globe view (requires WebGL).

§ Visibility from observer

Set your observer location to see the next 7 days of passes ≥ 10°. The values pass through the URL so the page stays shareable.

No JS? Fill the form by hand. The geolocation button needs JavaScript.